Volver al catálogo

STARLINK-36791

ActivoComunicacionesSSO
NORAD 68111·PAYLOAD·🇺🇸 United States

Lanzado Mar 8, 2026 desde Vandenberg Space Force Base

Loading…

Próximos Pases (próximas 24 horas)

TLE

ActualizadoSource: CelesTrak SupGP

Época: Sep 15, 2026, 03:28 UTC

1 68111C 26044L   26258.14493056  .00018325  00000+0  56901-3 0  2588
2 68111  97.2851 217.1564 0001771  91.6997 355.8185 15.33419702    15

Sigue STARLINK-36791 en tiempo real con AllMySat

Download on the App Store